{"data":{"norad_id":66290,"epoch":"2026-09-20T21:04:26.037696Z","epoch_age_seconds":63998,"freshness":"FRESH","line1":"1 66290U 25247AB  26263.87807914  .00019702  00000+0  59268-3 0  9997","line2":"2 66290  53.1610   0.1461 0001279  61.8608 298.2524 15.34400719 51036","mean_motion":15.34400719,"eccentricity":0.0001279,"inclination_deg":53.161,"raan_deg":0.1461,"arg_perigee_deg":61.8608,"mean_anomaly_deg":298.2524,"bstar":0.00059268,"rev_number":5103,"period_min":93.847714105509,"perigee_km":461.82615999502,"apogee_km":463.57604638182,"semimajor_km":6840.8381031884,"source":"CELESTRAK","updated_at":"2026-09-21T09:00:35.871996Z"}}